Tracking 27422 objects as of 30-May-2023
HD Live streaming from Space Station
objects crossing your sky now

BREEZE-M DEB (TANK)

Track BREEZE-M DEB (TANK) now!


NORAD ID: 28477
Int'l Code: 2004-041C
Perigee: 1,497.3 km
Apogee: 35,135.3 km
Inclination: 48.3 °
Period: 643.4 minutes
Semi major axis: 24687 km
RCS: 7.1658 m2 (large)
Launch date: October 14, 2004
Source: Commonwealth of Independent States (former USSR) (CIS)
Launch site: TYURATAM MISSILE AND SPACE COMPLEX (TTMTR)

Note: This is SATELLITE DEBRIS
Your satellite tracking list
Your tracking list is empty




NASA's NSSDC Master Catalog

Two Line Element Set (TLE):
1 28477U 04041C   23149.13517948 -.00000244  00000-0  00000-0 0  9995
2 28477  48.3088 353.3017 6812814 254.0956  26.1042  2.23817117152076
Source of the keplerian elements: AFSPC